Tracking 19628 objects as of 26-May-2019
HD Live streaming from Space Station
objects crossing your sky now
Watch Starlink satellites crossing your sky!

FLOCK 3P 69

Track FLOCK 3P 69 now!
10-day predictions
FLOCK 3P 69 is classified as:


NORAD ID: 42020
Int'l Code: 2017-008CA
Perigee: 491.9 km
Apogee: 501.4 km
Inclination: 97.4 °
Period: 94.4 minutes
Semi major axis: 6867 km
RCS: Unknown
Launch date: February 15, 2017
Source: United States (US)
Launch site: SRIHARIKOTA (SRI)
aabbcc
Your satellite tracking list
Your tracking list is empty




NASA's NSSDC Master Catalog

Two Line Element Set (TLE):
1 42020U 17008CA  19145.86778678 +.00001442 +00000-0 +59944-4 0  9997
2 42020 097.4107 213.4423 0006910 217.5273 142.5484 15.25414127125053
Source of the keplerian elements: AFSPC